BON313 FHSH-FACT

Flight info

Callsign BON313
Flight time 3h 55m
Altitude 35000
Route IBRUK DCT 18S004W 21S000E/N0454F370 24S004E 28S009E 30S012E DCT BUXIR DCT 33S017E DCT UVIKU UQ35 ASPIK ASPIK1B
Aircraft A320/M-SDE3FGHIRWY/LB1

Departure

Time 2026-05-05 18:31
Airport Saint Helena International Airport (FHSH)

Arrival

Time 2026-05-05 22:26
Airport Cape Town International Airport (FACT)
Time Latitude Longitude Altitude Speed Heading
2026-05-05 18:26 -15.96211 -5.64652 1020 ft 9 kts 91°
2026-05-05 18:26 -15.96199 -5.64591 1020 ft 9 kts 39°
2026-05-05 18:26 -15.96144 -5.64588 1021 ft 7 kts 358°
2026-05-05 18:27 -15.96087 -5.64588 1022 ft 13 kts 359°
2026-05-05 18:27 -15.95948 -5.64589 1023 ft 22 kts 360°
2026-05-05 18:27 -15.95801 -5.64590 1027 ft 21 kts 360°
2026-05-05 18:27 -15.95657 -5.64590 1027 ft 21 kts 359°
2026-05-05 18:28 -15.95355 -5.64601 1025 ft 22 kts 358°
2026-05-05 18:28 -15.95199 -5.64605 1024 ft 23 kts 359°
2026-05-05 18:28 -15.95043 -5.64608 1021 ft 13 kts 355°
2026-05-05 18:29 -15.94990 -5.64636 1020 ft 8 kts 320°
2026-05-05 18:29 -15.94949 -5.64645 1020 ft 5 kts 36°
2026-05-05 18:29 -15.94947 -5.64623 1021 ft 2 kts 117°
2026-05-05 18:29 -15.94956 -5.64618 1021 ft 1 kts 154°
2026-05-05 18:30 -15.94960 -5.64618 1021 ft 0 kts 173°
2026-05-05 18:30 -15.95093 -5.64610 1022 ft 56 kts 179°
2026-05-05 18:30 -15.95743 -5.64598 1028 ft 127 kts 178°
2026-05-05 18:30 -15.96804 -5.64575 1170 ft 164 kts 173°
2026-05-05 18:31 -15.97929 -5.64539 2076 ft 160 kts 173°
2026-05-05 18:31 -15.99053 -5.64500 2869 ft 164 kts 171°
2026-05-05 18:31 -16.00216 -5.64453 3320 ft 169 kts 170°
2026-05-05 18:31 -16.01410 -5.64394 3649 ft 183 kts 171°
2026-05-05 18:32 -16.02759 -5.64299 3845 ft 204 kts 164°
2026-05-05 18:32 -16.04133 -5.63778 4102 ft 222 kts 156°
2026-05-05 18:32 -16.05752 -5.63511 4427 ft 250 kts 174°
2026-05-05 18:32 -16.07551 -5.63564 5031 ft 264 kts 179°
2026-05-05 18:33 -16.09407 -5.63702 5795 ft 269 kts 180°
2026-05-05 18:33 -16.11276 -5.63829 6554 ft 274 kts 179°
2026-05-05 18:33 -16.13197 -5.63920 7301 ft 278 kts 179°
2026-05-05 18:33 -16.15151 -5.63972 8016 ft 283 kts 179°
2026-05-05 18:34 -16.17135 -5.63994 8697 ft 287 kts 178°
2026-05-05 18:34 -16.19154 -5.63995 9342 ft 292 kts 178°
2026-05-05 18:34 -16.21162 -5.63685 9955 ft 294 kts 161°
2026-05-05 18:34 -16.23007 -5.62753 10561 ft 296 kts 143°
2026-05-05 18:35 -16.24593 -5.61370 11185 ft 298 kts 138°
2026-05-05 18:35 -16.26139 -5.59955 11814 ft 300 kts 138°
2026-05-05 18:35 -16.27720 -5.58516 12436 ft 302 kts 138°
2026-05-05 18:35 -16.29315 -5.57066 13031 ft 305 kts 138°
2026-05-05 18:36 -16.30954 -5.55576 13265 ft 321 kts 138°
2026-05-05 18:36 -16.32686 -5.54003 13400 ft 339 kts 138°
2026-05-05 18:36 -16.34504 -5.52349 13532 ft 355 kts 138°
2026-05-05 18:36 -16.36393 -5.50631 13844 ft 364 kts 139°
2026-05-05 18:37 -16.38291 -5.48906 14313 ft 368 kts 139°
2026-05-05 18:37 -16.40232 -5.47140 14816 ft 371 kts 139°
2026-05-05 18:37 -16.42182 -5.45362 15328 ft 374 kts 138°
2026-05-05 18:37 -16.44138 -5.43575 15833 ft 376 kts 139°
2026-05-05 18:38 -16.46121 -5.41764 16318 ft 379 kts 139°
2026-05-05 18:38 -16.48116 -5.39948 16801 ft 381 kts 139°
2026-05-05 18:38 -16.50123 -5.38123 17273 ft 384 kts 139°
2026-05-05 18:38 -16.52143 -5.36284 17748 ft 387 kts 139°
2026-05-05 18:39 -16.54155 -5.34450 18222 ft 390 kts 139°
2026-05-05 18:39 -16.56207 -5.32578 18680 ft 393 kts 139°
2026-05-05 18:39 -16.58277 -5.30691 19124 ft 396 kts 139°
2026-05-05 18:39 -16.60362 -5.28792 19563 ft 400 kts 139°
2026-05-05 18:40 -16.62471 -5.26871 19993 ft 403 kts 139°
2026-05-05 18:40 -16.64594 -5.24937 20409 ft 407 kts 139°
2026-05-05 18:40 -16.66708 -5.23005 20834 ft 410 kts 139°
2026-05-05 18:40 -16.68884 -5.21011 21252 ft 413 kts 139°
2026-05-05 18:41 -16.71027 -5.19046 21645 ft 416 kts 139°
2026-05-05 18:41 -16.73215 -5.17041 22032 ft 419 kts 139°
2026-05-05 18:41 -16.75419 -5.15025 22396 ft 422 kts 139°
2026-05-05 18:41 -16.77634 -5.13003 22750 ft 424 kts 140°
2026-05-05 18:42 -16.79843 -5.10986 23092 ft 427 kts 140°
2026-05-05 18:42 -16.82089 -5.08932 23422 ft 430 kts 139°
2026-05-05 18:42 -16.84351 -5.06859 23748 ft 432 kts 139°
2026-05-05 18:42 -16.86610 -5.04787 24061 ft 434 kts 139°
2026-05-05 18:43 -16.88890 -5.02694 24372 ft 437 kts 139°
2026-05-05 18:43 -16.91153 -5.00618 24665 ft 439 kts 139°
2026-05-05 18:43 -16.93453 -4.98507 24952 ft 441 kts 139°
2026-05-05 18:43 -16.95768 -4.96385 25234 ft 444 kts 139°
2026-05-05 18:44 -16.98101 -4.94247 25513 ft 446 kts 139°
2026-05-05 18:44 -17.00441 -4.92102 25789 ft 449 kts 139°
2026-05-05 18:44 -17.02793 -4.89944 26052 ft 451 kts 139°
2026-05-05 18:44 -17.05154 -4.87773 26319 ft 453 kts 139°
2026-05-05 18:45 -17.07532 -4.85585 26572 ft 455 kts 139°
2026-05-05 18:45 -17.09916 -4.83390 26814 ft 458 kts 139°
2026-05-05 18:45 -17.12311 -4.81183 27065 ft 460 kts 139°
2026-05-05 18:45 -17.14723 -4.78960 27309 ft 462 kts 139°
2026-05-05 18:46 -17.17116 -4.76758 27550 ft 465 kts 139°
2026-05-05 18:46 -17.19554 -4.74518 27840 ft 466 kts 139°
2026-05-05 18:46 -17.21992 -4.72279 28195 ft 465 kts 139°
2026-05-05 18:46 -17.24424 -4.70047 28548 ft 465 kts 139°
2026-05-05 18:47 -17.26854 -4.67810 28887 ft 465 kts 139°
2026-05-05 18:47 -17.29288 -4.65565 29238 ft 465 kts 139°
2026-05-05 18:47 -17.31718 -4.63320 29569 ft 466 kts 139°
2026-05-05 18:47 -17.34150 -4.61075 29909 ft 466 kts 139°
2026-05-05 18:48 -17.36557 -4.58854 30253 ft 466 kts 139°
2026-05-05 18:48 -17.38997 -4.56602 30602 ft 467 kts 139°
2026-05-05 18:48 -17.41432 -4.54353 30941 ft 467 kts 139°
2026-05-05 18:48 -17.43867 -4.52104 31286 ft 467 kts 139°
2026-05-05 18:49 -17.46311 -4.49847 31621 ft 467 kts 140°
2026-05-05 18:49 -17.48748 -4.47593 31971 ft 467 kts 140°
2026-05-05 18:49 -17.51185 -4.45340 32321 ft 467 kts 140°
2026-05-05 18:49 -17.53625 -4.43079 32674 ft 467 kts 140°
2026-05-05 18:50 -17.56031 -4.40848 33020 ft 467 kts 140°
2026-05-05 18:50 -17.58469 -4.38584 33360 ft 467 kts 140°
2026-05-05 18:50 -17.60899 -4.36327 33696 ft 467 kts 140°
2026-05-05 18:50 -17.63330 -4.34070 34010 ft 466 kts 140°
2026-05-05 18:51 -17.65758 -4.31816 34316 ft 466 kts 140°
2026-05-05 18:51 -17.68187 -4.29560 34572 ft 467 kts 140°
2026-05-05 18:51 -17.70621 -4.27303 34813 ft 467 kts 141°
2026-05-05 18:51 -17.73062 -4.25045 35034 ft 469 kts 140°
2026-05-05 18:52 -17.77999 -4.20472 35112 ft 479 kts 140°
2026-05-05 18:52 -17.83045 -4.15783 35110 ft 488 kts 140°
2026-05-05 18:53 -17.88145 -4.11039 35109 ft 490 kts 140°
2026-05-05 18:53 -17.93213 -4.06323 35109 ft 490 kts 140°
2026-05-05 18:54 -17.98313 -4.01572 35119 ft 490 kts 140°
2026-05-05 18:54 -18.02910 -3.96239 35120 ft 492 kts 130°
2026-05-05 18:55 -18.07233 -3.90641 35122 ft 493 kts 130°
2026-05-05 18:55 -18.11542 -3.85074 35122 ft 493 kts 130°
2026-05-05 18:56 -18.15870 -3.79474 35127 ft 493 kts 130°
2026-05-05 18:56 -18.20206 -3.73863 35135 ft 493 kts 130°
2026-05-05 18:57 -18.24531 -3.68259 35133 ft 493 kts 130°
2026-05-05 18:57 -18.28848 -3.62653 35133 ft 493 kts 130°
2026-05-05 18:58 -18.33164 -3.57044 35139 ft 492 kts 130°
2026-05-05 18:58 -18.37461 -3.51456 35138 ft 492 kts 130°
2026-05-05 18:59 -18.41767 -3.45858 35136 ft 491 kts 130°
2026-05-05 18:59 -18.46037 -3.40294 35140 ft 491 kts 130°
2026-05-05 19:00 -18.50327 -3.34691 35147 ft 490 kts 130°
2026-05-05 19:00 -18.54623 -3.29081 35147 ft 490 kts 130°
2026-05-05 19:01 -18.58913 -3.23489 35147 ft 490 kts 130°
2026-05-05 19:01 -18.63167 -3.17938 35147 ft 490 kts 130°
2026-05-05 19:02 -18.67448 -3.12338 35147 ft 490 kts 130°
2026-05-05 19:02 -18.71720 -3.06744 35149 ft 489 kts 130°
2026-05-05 19:03 -18.75998 -3.01129 35149 ft 489 kts 130°
2026-05-05 19:03 -18.80246 -2.95552 35150 ft 489 kts 130°
2026-05-05 19:04 -18.84520 -2.89948 35151 ft 489 kts 130°
2026-05-05 19:04 -18.88748 -2.84391 35151 ft 488 kts 130°
2026-05-05 19:05 -18.93003 -2.78788 35154 ft 488 kts 130°
2026-05-05 19:05 -18.96540 -2.74128 35157 ft 488 kts 130°
2026-05-05 19:06 -19.00788 -2.68530 35158 ft 488 kts 130°
2026-05-05 19:06 -19.05034 -2.62930 35159 ft 488 kts 130°
2026-05-05 19:07 -19.09285 -2.57325 35161 ft 488 kts 130°
2026-05-05 19:07 -19.13529 -2.51719 35161 ft 488 kts 130°
2026-05-05 19:08 -19.17764 -2.46116 35161 ft 487 kts 130°
2026-05-05 19:08 -19.21975 -2.40546 35160 ft 487 kts 130°
2026-05-05 19:09 -19.26211 -2.34939 35159 ft 487 kts 130°
2026-05-05 19:09 -19.30439 -2.29333 35158 ft 487 kts 130°
2026-05-05 19:10 -19.34661 -2.23728 35158 ft 487 kts 130°
2026-05-05 19:10 -19.38883 -2.18117 35158 ft 486 kts 130°
2026-05-05 19:11 -19.43105 -2.12506 35156 ft 486 kts 130°
2026-05-05 19:11 -19.47294 -2.06930 35157 ft 486 kts 130°
2026-05-05 19:12 -19.51514 -2.01309 35160 ft 486 kts 130°
2026-05-05 19:12 -19.55722 -1.95696 35162 ft 486 kts 130°
2026-05-05 19:13 -19.59908 -1.90105 35162 ft 486 kts 130°
2026-05-05 19:13 -19.64109 -1.84487 35162 ft 486 kts 130°
2026-05-05 19:14 -19.68318 -1.78852 35161 ft 486 kts 130°
2026-05-05 19:14 -19.72523 -1.73221 35159 ft 485 kts 130°
2026-05-05 19:15 -19.76690 -1.67645 35156 ft 485 kts 130°
2026-05-05 19:15 -19.80886 -1.62011 35154 ft 485 kts 130°
2026-05-05 19:16 -19.85083 -1.56389 35155 ft 485 kts 130°
2026-05-05 19:16 -19.89272 -1.50776 35154 ft 485 kts 130°
2026-05-05 19:17 -19.93463 -1.45141 35154 ft 485 kts 130°
2026-05-05 19:17 -19.97624 -1.39530 35155 ft 485 kts 130°
2026-05-05 19:18 -20.01812 -1.33885 35159 ft 485 kts 129°
2026-05-05 19:18 -20.05990 -1.28254 35167 ft 485 kts 129°
2026-05-05 19:19 -20.10169 -1.22627 35171 ft 484 kts 129°
2026-05-05 19:19 -20.14342 -1.16989 35171 ft 484 kts 129°
2026-05-05 19:20 -20.18476 -1.11390 35170 ft 484 kts 129°
2026-05-05 19:20 -20.22631 -1.05754 35171 ft 483 kts 129°
2026-05-05 19:21 -20.26792 -1.00126 35171 ft 483 kts 129°
2026-05-05 19:21 -20.30945 -0.94501 35170 ft 483 kts 129°
2026-05-05 19:22 -20.35091 -0.88863 35168 ft 483 kts 129°
2026-05-05 19:22 -20.39233 -0.83225 35166 ft 482 kts 129°
2026-05-05 19:23 -20.43366 -0.77597 35167 ft 482 kts 129°
2026-05-05 19:23 -20.47507 -0.71969 35168 ft 482 kts 129°
2026-05-05 19:24 -20.51611 -0.66379 35167 ft 482 kts 129°
2026-05-05 19:24 -20.55737 -0.60740 35166 ft 482 kts 129°
2026-05-05 19:25 -20.59861 -0.55104 35167 ft 482 kts 129°
2026-05-05 19:25 -20.63997 -0.49464 35166 ft 482 kts 129°
2026-05-05 19:26 -20.68121 -0.43829 35170 ft 481 kts 129°
2026-05-05 19:26 -20.72235 -0.38188 35173 ft 481 kts 129°
2026-05-05 19:27 -20.76344 -0.32548 35176 ft 481 kts 129°
2026-05-05 19:27 -20.80438 -0.26935 35178 ft 481 kts 129°
2026-05-05 19:28 -20.84549 -0.21289 35181 ft 480 kts 129°
2026-05-05 19:28 -20.88647 -0.15650 35180 ft 480 kts 129°
2026-05-05 19:29 -20.92748 -0.10009 35179 ft 480 kts 129°
2026-05-05 19:29 -20.96844 -0.04363 35178 ft 480 kts 129°
2026-05-05 19:30 -21.00934 0.01272 35178 ft 479 kts 129°
2026-05-05 19:30 -21.05160 0.06791 35180 ft 478 kts 132°
2026-05-05 19:31 -21.09469 0.12213 35183 ft 478 kts 132°
2026-05-05 19:31 -21.13729 0.17623 35184 ft 478 kts 132°
2026-05-05 19:32 -21.17986 0.23121 35187 ft 478 kts 131°
2026-05-05 19:32 -21.22225 0.28621 35198 ft 477 kts 131°
2026-05-05 19:33 -21.26440 0.34070 35193 ft 477 kts 131°
2026-05-05 19:33 -21.30672 0.39551 35199 ft 476 kts 131°
2026-05-05 19:34 -21.34901 0.45026 35193 ft 476 kts 131°
2026-05-05 19:35 -21.41209 0.53190 35193 ft 475 kts 131°
2026-05-05 19:35 -21.45422 0.58654 35193 ft 475 kts 131°
2026-05-05 19:36 -21.49638 0.64134 35191 ft 475 kts 131°
2026-05-05 19:36 -21.53825 0.69586 35190 ft 474 kts 131°
2026-05-05 19:37 -21.58027 0.75064 35193 ft 474 kts 131°
2026-05-05 19:37 -21.62224 0.80536 35191 ft 474 kts 131°
2026-05-05 19:38 -21.66430 0.86013 35192 ft 474 kts 131°
2026-05-05 19:38 -21.70636 0.91491 35194 ft 474 kts 131°
2026-05-05 19:39 -21.74808 0.96945 35194 ft 474 kts 131°
2026-05-05 19:39 -21.78989 1.02423 35193 ft 473 kts 131°
2026-05-05 19:40 -21.83181 1.07908 35194 ft 473 kts 131°
2026-05-05 19:40 -21.87367 1.13392 35194 ft 473 kts 131°
2026-05-05 19:41 -21.91512 1.18833 35192 ft 472 kts 131°
2026-05-05 19:41 -21.95671 1.24305 35191 ft 472 kts 131°
2026-05-05 19:42 -21.99831 1.29774 35190 ft 472 kts 131°
2026-05-05 19:42 -22.03990 1.35255 35196 ft 471 kts 131°
2026-05-05 19:43 -22.08142 1.40721 35195 ft 470 kts 130°
2026-05-05 19:43 -22.12284 1.46179 35195 ft 470 kts 131°
2026-05-05 19:44 -22.16399 1.51604 35194 ft 470 kts 130°
2026-05-05 19:44 -22.20530 1.57071 35193 ft 469 kts 130°
2026-05-05 19:45 -22.24657 1.62538 35193 ft 469 kts 130°
2026-05-05 19:45 -22.28778 1.68005 35192 ft 469 kts 130°
2026-05-05 19:46 -22.32876 1.73440 35191 ft 469 kts 130°
2026-05-05 19:46 -22.36993 1.78891 35190 ft 469 kts 130°
2026-05-05 19:47 -22.41126 1.84372 35194 ft 469 kts 130°
2026-05-05 19:47 -22.45242 1.89849 35195 ft 469 kts 130°
2026-05-05 19:48 -22.49330 1.95295 35197 ft 468 kts 130°
2026-05-05 19:48 -22.53443 2.00781 35195 ft 468 kts 130°
2026-05-05 19:49 -22.57549 2.06250 35194 ft 468 kts 130°
2026-05-05 19:49 -22.61630 2.11690 35194 ft 468 kts 130°
2026-05-05 19:50 -22.65730 2.17175 35194 ft 468 kts 130°
2026-05-05 19:50 -22.69145 2.21746 35195 ft 468 kts 130°
2026-05-05 19:51 -22.73242 2.27231 35196 ft 468 kts 130°
2026-05-05 19:51 -22.77346 2.32733 35194 ft 468 kts 130°
2026-05-05 19:52 -22.81403 2.38182 35190 ft 467 kts 130°
2026-05-05 19:52 -22.85484 2.43671 35190 ft 467 kts 130°
2026-05-05 19:53 -22.89578 2.49169 35189 ft 467 kts 131°
2026-05-05 19:53 -22.93658 2.54659 35190 ft 468 kts 130°
2026-05-05 19:54 -22.97749 2.60172 35192 ft 468 kts 131°
2026-05-05 19:54 -23.01828 2.65694 35197 ft 468 kts 130°
2026-05-05 19:55 -23.05884 2.71185 35197 ft 469 kts 131°
2026-05-05 19:55 -23.09982 2.76709 35199 ft 468 kts 131°
2026-05-05 19:56 -23.14058 2.82228 35195 ft 468 kts 131°
2026-05-05 19:56 -23.18136 2.87756 35197 ft 468 kts 131°
2026-05-05 19:57 -23.22187 2.93257 35197 ft 468 kts 131°
2026-05-05 19:57 -23.26259 2.98789 35195 ft 468 kts 131°
2026-05-05 19:58 -23.30333 3.04330 35193 ft 468 kts 131°
2026-05-05 19:58 -23.34373 3.09831 35193 ft 468 kts 131°
2026-05-05 19:59 -23.38440 3.15365 35193 ft 468 kts 131°
2026-05-05 19:59 -23.42501 3.20902 35191 ft 468 kts 131°
2026-05-05 20:00 -23.46560 3.26443 35186 ft 468 kts 131°
2026-05-05 20:00 -23.50623 3.31995 35183 ft 468 kts 131°
2026-05-05 20:01 -23.54679 3.37543 35181 ft 468 kts 131°
2026-05-05 20:01 -23.58706 3.43060 35180 ft 468 kts 131°
2026-05-05 20:02 -23.62762 3.48625 35178 ft 468 kts 131°
2026-05-05 20:02 -23.66820 3.54193 35179 ft 468 kts 131°
2026-05-05 20:03 -23.70871 3.59760 35180 ft 468 kts 131°
2026-05-05 20:03 -23.74889 3.65296 35180 ft 468 kts 131°
2026-05-05 20:04 -23.78943 3.70886 35180 ft 468 kts 131°
2026-05-05 20:04 -23.82993 3.76461 35182 ft 468 kts 131°
2026-05-05 20:05 -23.87005 3.82007 35183 ft 468 kts 131°
2026-05-05 20:05 -23.91043 3.87600 35183 ft 467 kts 131°
2026-05-05 20:06 -23.95081 3.93191 35182 ft 467 kts 131°
2026-05-05 20:06 -23.99097 3.98729 35181 ft 467 kts 131°
2026-05-05 20:07 -24.03267 4.04179 35179 ft 465 kts 136°
2026-05-05 20:07 -24.07713 4.09336 35177 ft 464 kts 137°
2026-05-05 20:08 -24.12157 4.14411 35175 ft 464 kts 137°
2026-05-05 20:08 -24.16564 4.19600 35175 ft 464 kts 136°
2026-05-05 20:09 -24.20932 4.24828 35175 ft 465 kts 136°
2026-05-05 20:09 -24.25274 4.30031 35176 ft 464 kts 136°
2026-05-05 20:10 -24.29640 4.35251 35176 ft 464 kts 136°
2026-05-05 20:10 -24.34026 4.40469 35175 ft 464 kts 136°
2026-05-05 20:11 -24.38401 4.45690 35176 ft 464 kts 136°
2026-05-05 20:11 -24.42748 4.50888 35178 ft 464 kts 136°
2026-05-05 20:12 -24.47121 4.56120 35179 ft 464 kts 136°
2026-05-05 20:12 -24.51487 4.61365 35179 ft 465 kts 136°
2026-05-05 20:13 -24.55842 4.66597 35180 ft 464 kts 136°
2026-05-05 20:13 -24.60198 4.71830 35178 ft 464 kts 136°
2026-05-05 20:14 -24.64524 4.77037 35177 ft 464 kts 136°
2026-05-05 20:14 -24.68870 4.82281 35177 ft 464 kts 137°
2026-05-05 20:15 -24.73235 4.87536 35178 ft 464 kts 137°
2026-05-05 20:15 -24.77561 4.92756 35178 ft 464 kts 137°
2026-05-05 20:16 -24.81909 4.98025 35179 ft 464 kts 137°
2026-05-05 20:16 -24.86263 5.03286 35178 ft 463 kts 137°
2026-05-05 20:17 -24.90574 5.08509 35178 ft 463 kts 137°
2026-05-05 20:17 -24.94919 5.13769 35177 ft 463 kts 137°
2026-05-05 20:18 -24.99227 5.18989 35176 ft 463 kts 137°
2026-05-05 20:18 -25.03556 5.24257 35176 ft 463 kts 137°
2026-05-05 20:19 -25.07888 5.29534 35178 ft 463 kts 137°
2026-05-05 20:19 -25.12185 5.34775 35180 ft 463 kts 137°
2026-05-05 20:20 -25.16520 5.40064 35181 ft 463 kts 137°
2026-05-05 20:20 -25.20849 5.45336 35186 ft 463 kts 137°
2026-05-05 20:21 -25.25141 5.50576 35188 ft 462 kts 137°
2026-05-05 20:21 -25.29456 5.55861 35189 ft 462 kts 137°
2026-05-05 20:22 -25.33747 5.61132 35188 ft 461 kts 137°
2026-05-05 20:22 -25.38050 5.66407 35187 ft 461 kts 137°
2026-05-05 20:23 -25.42330 5.71652 35188 ft 461 kts 137°
2026-05-05 20:23 -25.46629 5.76930 35190 ft 461 kts 137°
2026-05-05 20:24 -25.50902 5.82181 35191 ft 461 kts 137°
2026-05-05 20:24 -25.55191 5.87472 35192 ft 461 kts 137°
2026-05-05 20:25 -25.59454 5.92741 35192 ft 461 kts 137°
2026-05-05 20:25 -25.63743 5.98036 35194 ft 461 kts 137°
2026-05-05 20:26 -25.68027 6.03342 35194 ft 461 kts 138°
2026-05-05 20:26 -25.72281 6.08600 35195 ft 460 kts 138°
2026-05-05 20:27 -25.76553 6.13888 35199 ft 460 kts 138°
2026-05-05 20:27 -25.80823 6.19180 35197 ft 459 kts 138°
2026-05-05 20:28 -25.85063 6.24447 35198 ft 459 kts 137°
2026-05-05 20:28 -25.89316 6.29746 35199 ft 459 kts 138°
2026-05-05 20:29 -25.93579 6.35048 35199 ft 460 kts 138°
2026-05-05 20:29 -25.97819 6.40339 35200 ft 460 kts 137°
2026-05-05 20:30 -26.02082 6.45656 35202 ft 460 kts 138°
2026-05-05 20:30 -26.06349 6.50981 35202 ft 460 kts 138°
2026-05-05 20:31 -26.10607 6.56304 35201 ft 460 kts 138°
2026-05-05 20:31 -26.14832 6.61597 35201 ft 459 kts 138°
2026-05-05 20:32 -26.19078 6.66921 35201 ft 459 kts 138°
2026-05-05 20:32 -26.23322 6.72255 35201 ft 459 kts 138°
2026-05-05 20:33 -26.27556 6.77584 35201 ft 459 kts 138°
2026-05-05 20:33 -26.31796 6.82915 35201 ft 459 kts 138°
2026-05-05 20:34 -26.36008 6.88221 35201 ft 459 kts 139°
2026-05-05 20:34 -26.40243 6.93554 35200 ft 459 kts 139°
2026-05-05 20:35 -26.44468 6.98898 35198 ft 459 kts 139°
2026-05-05 20:35 -26.48689 7.04236 35200 ft 458 kts 139°
2026-05-05 20:36 -26.52200 7.08675 35196 ft 458 kts 139°
2026-05-05 20:36 -26.56431 7.14033 35200 ft 459 kts 139°
2026-05-05 20:37 -26.61335 7.20262 35202 ft 458 kts 139°
2026-05-05 20:37 -26.64833 7.24712 35202 ft 458 kts 139°
2026-05-05 20:38 -26.69041 7.30072 35202 ft 458 kts 139°
2026-05-05 20:38 -26.73248 7.35433 35202 ft 458 kts 139°
2026-05-05 20:39 -26.77431 7.40762 35202 ft 458 kts 139°
2026-05-05 20:39 -26.81638 7.46120 35202 ft 458 kts 139°
2026-05-05 20:40 -26.85843 7.51494 35202 ft 458 kts 139°
2026-05-05 20:40 -26.90017 7.56840 35203 ft 458 kts 139°
2026-05-05 20:41 -26.94211 7.62218 35193 ft 457 kts 139°
2026-05-05 20:41 -26.98398 7.67589 35186 ft 457 kts 139°
2026-05-05 20:42 -27.02591 7.72967 35181 ft 457 kts 139°
2026-05-05 20:42 -27.06744 7.78310 35184 ft 457 kts 139°
2026-05-05 20:43 -27.10920 7.83695 35185 ft 457 kts 139°
2026-05-05 20:43 -27.15098 7.89067 35185 ft 456 kts 140°
2026-05-05 20:44 -27.19269 7.94446 35186 ft 457 kts 139°
2026-05-05 20:44 -27.23436 7.99841 35187 ft 456 kts 140°
2026-05-05 20:45 -27.29656 8.07882 35187 ft 456 kts 140°
2026-05-05 20:45 -27.33813 8.13268 35189 ft 455 kts 140°
2026-05-05 20:46 -27.37961 8.18656 35188 ft 455 kts 140°
2026-05-05 20:46 -27.42107 8.24053 35187 ft 455 kts 140°
2026-05-05 20:47 -27.46222 8.29402 35184 ft 454 kts 140°
2026-05-05 20:47 -27.50363 8.34799 35185 ft 454 kts 140°
2026-05-05 20:48 -27.54498 8.40189 35183 ft 454 kts 140°
2026-05-05 20:48 -27.58635 8.45590 35184 ft 454 kts 140°
2026-05-05 20:49 -27.62726 8.50953 35183 ft 454 kts 140°
2026-05-05 20:49 -27.66845 8.56353 35182 ft 454 kts 140°
2026-05-05 20:50 -27.70973 8.61758 35183 ft 453 kts 140°
2026-05-05 20:50 -27.75089 8.67158 35183 ft 453 kts 140°
2026-05-05 20:51 -27.79179 8.72526 35183 ft 453 kts 140°
2026-05-05 20:51 -27.83286 8.77929 35184 ft 453 kts 140°
2026-05-05 20:52 -27.87391 8.83345 35183 ft 452 kts 140°
2026-05-05 20:52 -27.91490 8.88754 35182 ft 452 kts 140°
2026-05-05 20:53 -27.95557 8.94120 35180 ft 452 kts 140°
2026-05-05 20:53 -27.99649 8.99544 35182 ft 452 kts 140°
2026-05-05 20:54 -28.03634 9.05082 35186 ft 454 kts 138°
2026-05-05 20:54 -28.07468 9.10736 35186 ft 454 kts 137°
2026-05-05 20:55 -28.11311 9.16425 35184 ft 453 kts 138°
2026-05-05 20:55 -28.15174 9.22060 35184 ft 452 kts 139°
2026-05-05 20:56 -28.19010 9.27629 35182 ft 451 kts 139°
2026-05-05 20:56 -28.22875 9.33243 35181 ft 451 kts 139°
2026-05-05 20:57 -28.26725 9.38863 35179 ft 450 kts 139°
2026-05-05 20:57 -28.30546 9.44459 35178 ft 450 kts 139°
2026-05-05 20:58 -28.34394 9.50081 35177 ft 450 kts 139°
2026-05-05 20:58 -28.38239 9.55715 35178 ft 450 kts 139°
2026-05-05 20:59 -28.42052 9.61317 35178 ft 450 kts 139°
2026-05-05 20:59 -28.45895 9.66960 35177 ft 450 kts 139°
2026-05-05 21:00 -28.49699 9.72560 35179 ft 450 kts 138°
2026-05-05 21:00 -28.53526 9.78202 35180 ft 450 kts 138°
2026-05-05 21:01 -28.57349 9.83845 35181 ft 450 kts 138°
2026-05-05 21:01 -28.61165 9.89485 35180 ft 450 kts 138°
2026-05-05 21:02 -28.64984 9.95138 35180 ft 450 kts 138°
2026-05-05 21:02 -28.68777 10.00761 35180 ft 450 kts 138°
2026-05-05 21:03 -28.72592 10.06422 35186 ft 449 kts 138°
2026-05-05 21:03 -28.76397 10.12068 35188 ft 448 kts 138°
2026-05-05 21:04 -28.80166 10.17669 35191 ft 447 kts 138°
2026-05-05 21:04 -28.83951 10.23308 35190 ft 446 kts 138°
2026-05-05 21:05 -28.87730 10.28944 35188 ft 446 kts 138°
2026-05-05 21:05 -28.91501 10.34572 35188 ft 445 kts 138°
2026-05-05 21:06 -28.95240 10.40159 35187 ft 445 kts 138°
2026-05-05 21:06 -28.98998 10.45794 35187 ft 445 kts 138°
2026-05-05 21:07 -29.02748 10.51426 35187 ft 445 kts 138°
2026-05-05 21:07 -29.06472 10.57025 35188 ft 444 kts 138°
2026-05-05 21:08 -29.10219 10.62658 35189 ft 444 kts 138°
2026-05-05 21:08 -29.13959 10.68273 35187 ft 444 kts 138°
2026-05-05 21:09 -29.17676 10.73867 35187 ft 444 kts 138°
2026-05-05 21:09 -29.21401 10.79504 35188 ft 443 kts 138°
2026-05-05 21:10 -29.25125 10.85143 35189 ft 443 kts 138°
2026-05-05 21:10 -29.28815 10.90737 35189 ft 442 kts 138°
2026-05-05 21:11 -29.32534 10.96372 35188 ft 442 kts 137°
2026-05-05 21:11 -29.36255 11.02001 35189 ft 442 kts 138°
2026-05-05 21:12 -29.39942 11.07598 35167 ft 443 kts 138°
2026-05-05 21:12 -29.43663 11.13265 35159 ft 445 kts 137°
2026-05-05 21:13 -29.47400 11.18965 35167 ft 446 kts 137°
2026-05-05 21:13 -29.51116 11.24649 35174 ft 447 kts 137°
2026-05-05 21:14 -29.54851 11.30363 35179 ft 447 kts 137°
2026-05-05 21:14 -29.58590 11.36074 35184 ft 446 kts 137°
2026-05-05 21:15 -29.62329 11.41798 35186 ft 446 kts 137°
2026-05-05 21:15 -29.66029 11.47474 35186 ft 446 kts 137°
2026-05-05 21:16 -29.69748 11.53198 35187 ft 445 kts 137°
2026-05-05 21:16 -29.73435 11.58884 35188 ft 445 kts 137°
2026-05-05 21:17 -29.77133 11.64590 35190 ft 444 kts 136°
2026-05-05 21:17 -29.80826 11.70298 35188 ft 444 kts 136°
2026-05-05 21:18 -29.84513 11.76000 35189 ft 443 kts 136°
2026-05-05 21:18 -29.88176 11.81653 35187 ft 442 kts 136°
2026-05-05 21:19 -29.91852 11.87333 35186 ft 442 kts 136°
2026-05-05 21:19 -29.95532 11.93048 35185 ft 442 kts 136°
2026-05-05 21:20 -29.99174 11.98715 35182 ft 442 kts 136°
2026-05-05 21:20 -30.02890 12.04347 35182 ft 439 kts 138°
2026-05-05 21:21 -30.06073 12.08900 35176 ft 438 kts 139°
2026-05-05 21:21 -30.09920 12.14360 35169 ft 438 kts 139°
2026-05-05 21:22 -30.13730 12.19868 35165 ft 439 kts 138°
2026-05-05 21:22 -30.17508 12.25371 35166 ft 438 kts 138°
2026-05-05 21:23 -30.21300 12.30913 35165 ft 438 kts 138°
2026-05-05 21:23 -30.25057 12.36384 35163 ft 437 kts 139°
2026-05-05 21:24 -30.28843 12.41898 35161 ft 437 kts 138°
2026-05-05 21:24 -30.32621 12.47405 35164 ft 437 kts 138°
2026-05-05 21:25 -30.36399 12.52924 35167 ft 436 kts 138°
2026-05-05 21:25 -30.40136 12.58389 35168 ft 435 kts 138°
2026-05-05 21:26 -30.43895 12.63896 35169 ft 434 kts 138°
2026-05-05 21:26 -30.47635 12.69403 35166 ft 433 kts 138°
2026-05-05 21:27 -30.51346 12.74867 35166 ft 433 kts 138°
2026-05-05 21:27 -30.55074 12.80352 35166 ft 432 kts 138°
2026-05-05 21:28 -30.58775 12.85806 35168 ft 431 kts 138°
2026-05-05 21:28 -30.62487 12.91295 35170 ft 431 kts 138°
2026-05-05 21:29 -30.66182 12.96772 35170 ft 430 kts 138°
2026-05-05 21:29 -30.69851 13.02206 35169 ft 429 kts 138°
2026-05-05 21:30 -30.73537 13.07664 35166 ft 428 kts 138°
2026-05-05 21:30 -30.77218 13.13120 35167 ft 428 kts 138°
2026-05-05 21:31 -30.80866 13.18554 35168 ft 428 kts 138°
2026-05-05 21:31 -30.84534 13.24024 35171 ft 427 kts 138°
2026-05-05 21:32 -30.88187 13.29478 35171 ft 427 kts 139°
2026-05-05 21:32 -30.91845 13.34931 35172 ft 426 kts 138°
2026-05-05 21:33 -30.95486 13.40359 35170 ft 425 kts 138°
2026-05-05 21:33 -30.99110 13.45785 35168 ft 424 kts 138°
2026-05-05 21:34 -31.02704 13.51193 35164 ft 424 kts 138°
2026-05-05 21:34 -31.06321 13.56632 35162 ft 423 kts 138°
2026-05-05 21:35 -31.09930 13.62050 35163 ft 422 kts 138°
2026-05-05 21:35 -31.13522 13.67463 35166 ft 421 kts 138°
2026-05-05 21:36 -31.17095 13.72841 35168 ft 421 kts 138°
2026-05-05 21:36 -31.20667 13.78235 35169 ft 420 kts 138°
2026-05-05 21:37 -31.24231 13.83634 35171 ft 419 kts 138°
2026-05-05 21:37 -31.27792 13.89035 35170 ft 418 kts 138°
2026-05-05 21:38 -31.31344 13.94411 35170 ft 417 kts 138°
2026-05-05 21:38 -31.34863 13.99743 35171 ft 416 kts 138°
2026-05-05 21:39 -31.38382 14.05092 35172 ft 414 kts 138°
2026-05-05 21:39 -31.41898 14.10450 35171 ft 414 kts 138°
2026-05-05 21:40 -31.45400 14.15804 35170 ft 412 kts 138°
2026-05-05 21:40 -31.48871 14.21096 35168 ft 412 kts 138°
2026-05-05 21:41 -31.52365 14.26426 35166 ft 411 kts 138°
2026-05-05 21:41 -31.55844 14.31757 35164 ft 411 kts 138°
2026-05-05 21:42 -31.59300 14.37051 35162 ft 411 kts 138°
2026-05-05 21:42 -31.62772 14.42380 35161 ft 411 kts 137°
2026-05-05 21:43 -31.66241 14.47718 35158 ft 411 kts 138°
2026-05-05 21:43 -31.69717 14.53068 35156 ft 411 kts 138°
2026-05-05 21:44 -31.73182 14.58425 35154 ft 411 kts 137°
2026-05-05 21:44 -31.76631 14.63744 35152 ft 411 kts 137°
2026-05-05 21:45 -31.80104 14.69103 35148 ft 412 kts 138°
2026-05-05 21:45 -31.83576 14.74471 35149 ft 412 kts 137°
2026-05-05 21:46 -31.87053 14.79858 35149 ft 413 kts 137°
2026-05-05 21:46 -31.90503 14.85211 35149 ft 413 kts 137°
2026-05-05 21:47 -31.93975 14.90606 35150 ft 413 kts 137°
2026-05-05 21:47 -31.97457 14.96031 35150 ft 414 kts 137°
2026-05-05 21:48 -32.00819 15.01584 35151 ft 422 kts 131°
2026-05-05 21:48 -32.03843 15.07464 35161 ft 421 kts 131°
2026-05-05 21:49 -32.06894 15.13354 35160 ft 420 kts 131°
2026-05-05 21:49 -32.09945 15.19241 35160 ft 419 kts 131°
2026-05-05 21:50 -32.12959 15.25080 35157 ft 419 kts 131°
2026-05-05 21:50 -32.15979 15.30968 35153 ft 419 kts 131°
2026-05-05 21:51 -32.19000 15.36852 35149 ft 419 kts 131°
2026-05-05 21:51 -32.22023 15.42750 35147 ft 419 kts 131°
2026-05-05 21:52 -32.26555 15.51599 35146 ft 420 kts 131°
2026-05-05 21:53 -32.29575 15.57519 35146 ft 420 kts 131°
2026-05-05 21:53 -32.32593 15.63440 35147 ft 420 kts 131°
2026-05-05 21:54 -32.35602 15.69338 35146 ft 421 kts 131°
2026-05-05 21:54 -32.38622 15.75282 35146 ft 421 kts 131°
2026-05-05 21:55 -32.41636 15.81226 35146 ft 421 kts 130°
2026-05-05 21:55 -32.44627 15.87145 35139 ft 421 kts 130°
2026-05-05 21:56 -32.47644 15.93107 35138 ft 421 kts 131°
2026-05-05 21:56 -32.50661 15.99071 35142 ft 421 kts 130°
2026-05-05 21:57 -32.53653 16.05000 35136 ft 422 kts 130°
2026-05-05 21:57 -32.56669 16.10979 35135 ft 423 kts 130°
2026-05-05 21:58 -32.59683 16.16978 35135 ft 423 kts 129°
2026-05-05 21:58 -32.62692 16.22995 35134 ft 424 kts 129°
2026-05-05 21:59 -32.65691 16.28985 35135 ft 424 kts 129°
2026-05-05 21:59 -32.68706 16.35007 35138 ft 424 kts 129°
2026-05-05 22:00 -32.71727 16.41046 35132 ft 425 kts 129°
2026-05-05 22:00 -32.74748 16.47106 35132 ft 425 kts 129°
2026-05-05 22:01 -32.77741 16.53121 35130 ft 426 kts 128°
2026-05-05 22:01 -32.80755 16.59191 35133 ft 426 kts 128°
2026-05-05 22:02 -32.83767 16.65268 35131 ft 426 kts 128°
2026-05-05 22:02 -32.86778 16.71352 35129 ft 426 kts 128°
2026-05-05 22:03 -32.89766 16.77403 35126 ft 426 kts 127°
2026-05-05 22:03 -32.92777 16.83505 35114 ft 428 kts 127°
2026-05-05 22:03 -32.94288 16.86566 34866 ft 428 kts 127°
2026-05-05 22:04 -32.95804 16.89639 34585 ft 428 kts 127°
2026-05-05 22:04 -32.97321 16.92716 33726 ft 432 kts 127°
2026-05-05 22:04 -32.98829 16.95772 32906 ft 435 kts 127°
2026-05-05 22:04 -33.00367 16.98891 32085 ft 436 kts 126°
2026-05-05 22:05 -33.01880 17.01978 31604 ft 429 kts 126°
2026-05-05 22:05 -33.03370 17.05033 31049 ft 423 kts 125°
2026-05-05 22:05 -33.04844 17.08053 30507 ft 418 kts 125°
2026-05-05 22:05 -33.06301 17.11038 29963 ft 414 kts 125°
2026-05-05 22:06 -33.07747 17.14001 29415 ft 409 kts 124°
2026-05-05 22:06 -33.09154 17.16877 28886 ft 404 kts 124°
2026-05-05 22:06 -33.10573 17.19771 28358 ft 400 kts 124°
2026-05-05 22:06 -33.11975 17.22633 27834 ft 397 kts 123°
2026-05-05 22:07 -33.13343 17.25441 27325 ft 395 kts 123°
2026-05-05 22:07 -33.14709 17.28261 26806 ft 390 kts 122°
2026-05-05 22:07 -33.16070 17.31066 26302 ft 388 kts 122°
2026-05-05 22:07 -33.17420 17.33847 25814 ft 385 kts 121°
2026-05-05 22:08 -33.18761 17.36601 25313 ft 383 kts 121°
2026-05-05 22:08 -33.19646 17.38419 24977 ft 381 kts 121°
2026-05-05 22:08 -33.20975 17.41149 24484 ft 379 kts 120°
2026-05-05 22:08 -33.22298 17.43862 24000 ft 377 kts 120°
2026-05-05 22:09 -33.23613 17.46568 23527 ft 377 kts 120°
2026-05-05 22:09 -33.24926 17.49275 23126 ft 375 kts 120°
2026-05-05 22:09 -33.26236 17.51971 22709 ft 373 kts 120°
2026-05-05 22:09 -33.27533 17.54648 22283 ft 371 kts 120°
2026-05-05 22:10 -33.28818 17.57314 21829 ft 368 kts 119°
2026-05-05 22:10 -33.30091 17.59960 21373 ft 366 kts 120°
2026-05-05 22:10 -33.31358 17.62590 20904 ft 364 kts 120°
2026-05-05 22:10 -33.32623 17.65210 20413 ft 363 kts 120°
2026-05-05 22:11 -33.33884 17.67821 19938 ft 361 kts 120°
2026-05-05 22:11 -33.35115 17.70372 19476 ft 357 kts 120°
2026-05-05 22:11 -33.36354 17.72946 18961 ft 355 kts 120°
2026-05-05 22:11 -33.37585 17.75507 18456 ft 353 kts 120°
2026-05-05 22:12 -33.38805 17.78048 17959 ft 351 kts 120°
2026-05-05 22:12 -33.40006 17.80550 17468 ft 349 kts 120°
2026-05-05 22:12 -33.41228 17.83091 16983 ft 346 kts 120°
2026-05-05 22:12 -33.42405 17.85539 16515 ft 343 kts 120°
2026-05-05 22:13 -33.43592 17.88007 16052 ft 340 kts 120°
2026-05-05 22:13 -33.44769 17.90461 15575 ft 338 kts 120°
2026-05-05 22:13 -33.45936 17.92902 15108 ft 335 kts 120°
2026-05-05 22:13 -33.47086 17.95313 14651 ft 332 kts 120°
2026-05-05 22:14 -33.48229 17.97708 14191 ft 329 kts 121°
2026-05-05 22:14 -33.49364 18.00078 13739 ft 326 kts 121°
2026-05-05 22:14 -33.50489 18.02427 13265 ft 324 kts 121°
2026-05-05 22:14 -33.51604 18.04760 12815 ft 321 kts 121°
2026-05-05 22:15 -33.52705 18.07075 12362 ft 318 kts 121°
2026-05-05 22:15 -33.53782 18.09346 11926 ft 315 kts 121°
2026-05-05 22:15 -33.54864 18.11620 11487 ft 313 kts 121°
2026-05-05 22:15 -33.55939 18.13880 11006 ft 311 kts 121°
2026-05-05 22:16 -33.57010 18.16130 10543 ft 310 kts 121°
2026-05-05 22:16 -33.58080 18.18379 10078 ft 308 kts 121°
2026-05-05 22:16 -33.59141 18.20611 9603 ft 307 kts 121°
2026-05-05 22:16 -33.60198 18.22834 9155 ft 306 kts 121°
2026-05-05 22:17 -33.61252 18.25055 8698 ft 305 kts 121°
2026-05-05 22:17 -33.62299 18.27263 8307 ft 302 kts 121°
2026-05-05 22:17 -33.63317 18.29414 8182 ft 290 kts 121°
2026-05-05 22:17 -33.64293 18.31475 8054 ft 279 kts 121°
2026-05-05 22:18 -33.65239 18.33472 7853 ft 272 kts 121°
2026-05-05 22:18 -33.66168 18.35437 7539 ft 270 kts 121°
2026-05-05 22:18 -33.67090 18.37392 7202 ft 269 kts 121°
2026-05-05 22:18 -33.68008 18.39337 6870 ft 268 kts 120°
2026-05-05 22:19 -33.68723 18.41405 6523 ft 268 kts 110°
2026-05-05 22:19 -33.69135 18.43552 6186 ft 268 kts 94°
2026-05-05 22:19 -33.69152 18.45793 5834 ft 268 kts 95°
2026-05-05 22:19 -33.69683 18.47896 5511 ft 263 kts 123°
2026-05-05 22:20 -33.70775 18.49637 5265 ft 258 kts 129°
2026-05-05 22:20 -33.71884 18.51314 5013 ft 255 kts 131°
2026-05-05 22:20 -33.73210 18.52645 4753 ft 242 kts 152°
2026-05-05 22:20 -33.74769 18.53310 4495 ft 237 kts 165°
2026-05-05 22:21 -33.76346 18.53802 4283 ft 229 kts 165°
2026-05-05 22:21 -33.77852 18.54274 4017 ft 218 kts 165°
2026-05-05 22:21 -33.79289 18.54726 3727 ft 209 kts 165°
2026-05-05 22:21 -33.80673 18.55163 3473 ft 203 kts 165°
2026-05-05 22:22 -33.82025 18.55590 3159 ft 200 kts 165°
2026-05-05 22:22 -33.83355 18.56010 2871 ft 196 kts 165°
2026-05-05 22:22 -33.84660 18.56422 2599 ft 192 kts 165°
2026-05-05 22:22 -33.85917 18.56819 2332 ft 180 kts 166°
2026-05-05 22:23 -33.87079 18.57187 2084 ft 166 kts 166°
2026-05-05 22:23 -33.88153 18.57527 1857 ft 154 kts 166°
2026-05-05 22:23 -33.89132 18.57836 1673 ft 143 kts 166°
2026-05-05 22:23 -33.90081 18.58137 1459 ft 140 kts 168°
2026-05-05 22:24 -33.91017 18.58415 1276 ft 138 kts 168°
2026-05-05 22:24 -33.91947 18.58718 1050 ft 138 kts 166°
2026-05-05 22:24 -33.92870 18.59022 839 ft 138 kts 166°
2026-05-05 22:24 -33.93797 18.59312 647 ft 137 kts 167°
2026-05-05 22:25 -33.94716 18.59601 459 ft 137 kts 166°
2026-05-05 22:25 -33.95637 18.59894 273 ft 136 kts 166°
2026-05-05 22:25 -33.96540 18.60180 160 ft 125 kts 166°
2026-05-05 22:25 -33.97224 18.60393 154 ft 80 kts 165°
2026-05-05 22:26 -33.97603 18.60514 152 ft 36 kts 163°
2026-05-05 22:26 -33.97752 18.60564 154 ft 17 kts 164°
2026-05-05 22:26 -33.97801 18.60540 154 ft 7 kts 268°
2026-05-05 22:26 -33.97771 18.60476 154 ft 10 kts 292°
2026-05-05 22:27 -33.97755 18.60381 154 ft 12 kts 281°
2026-05-05 22:27 -33.97741 18.60299 154 ft 10 kts 282°
2026-05-05 22:27 -33.97726 18.60219 154 ft 0 kts 287°
2026-05-05 22:27 -33.97724 18.60213 154 ft 2 kts 287°
2026-05-05 22:28 -33.97711 18.60190 154 ft 5 kts 315°
2026-05-05 22:28 -33.97672 18.60168 154 ft 8 kts 340°
2026-05-05 22:28 -33.97612 18.60146 154 ft 11 kts 343°
2026-05-05 22:28 -33.97534 18.60109 154 ft 14 kts 334°
2026-05-05 22:29 -33.97437 18.60061 154 ft 17 kts 345°
2026-05-05 22:29 -33.97312 18.60021 154 ft 20 kts 345°
2026-05-05 22:29 -33.97177 18.59979 154 ft 17 kts 346°
2026-05-05 22:29 -33.97055 18.59946 154 ft 20 kts 349°
2026-05-05 22:30 -33.96915 18.59906 154 ft 17 kts 345°
2026-05-05 22:30 -33.96812 18.59872 154 ft 15 kts 344°
2026-05-05 22:30 -33.96714 18.59837 154 ft 8 kts 342°
2026-05-05 22:30 -33.96692 18.59820 154 ft 2 kts 306°
2026-05-05 22:31 -33.96692 18.59808 154 ft 2 kts 263°
2026-05-05 22:31 -33.96698 18.59787 154 ft 3 kts 255°
2026-05-05 22:31 -33.96705 18.59757 154 ft 5 kts 255°
2026-05-05 22:31 -33.96709 18.59738 154 ft 0 kts 255°